Weather History for LRSV - April, 2013

Change the Weather History Date:

Monday, April 8, 2013

  Actual Average Record
Temperature  
Mean Temperature 34 °F -  
Max Temperature 37 °F - - ()
Min Temperature 30 °F - - ()
Degree Days  
Heating Degree Days 32    
Moisture  
Dew Point 28 °F    
Average Humidity 79    
Maximum Humidity 93    
Minimum Humidity 65    
Precipitation  
Precipitation 0.00 in - - ()
Sea Level Pressure  
Sea Level Pressure 29.91 in    
Wind  
Wind Speed 7 mph ()    
Max Wind Speed 12 mph    
Max Gust Speed -    
Visibility 6.0 miles    
Events      
T = Trace of Precipitation, MM = Missing Value Source: Averaged Metar Reports

Daily Weather History Graph

Daily Weather History Graph

Search for Another Location

Airport or City:

Trip Planner

Search our weather history database for the weather conditions in past years. The results will help you decide how hot, cold, wet, or windy it might be!

Date:

Astronomy

Apr. 08, 2013 Rise Set
Actual Time 6:39 AM EEST 7:54 PM EEST
Civil Twilight 6:07 AM EEST 8:26 PM EEST
Nautical Twilight 5:29 AM EEST 9:04 PM EEST
Astronomical Twilight 4:48 AM EEST 9:45 PM EEST
Moon 5:26 AM EEST (4/8) 6:03 PM EEST (4/8)
Length of Visible Light 14h 18m
Length of Day
13h 15m
Waning Crescent, 4% of the Moon is Illuminated
Apr 8
Waning Crescent
Apr 10
New
Apr 18
First Quarter
Apr 25
Full
May 2
Last Quarter

Hourly Weather History & Observations

Time (EEST) Temp. Windchill Dew Point Humidity Pressure Visibility Wind Dir Wind Speed Gust Speed Precip Events Conditions
12:00 AM 33.8 °F 25.3 °F 32.0 °F 93% 29.95 in 1.9 mi North 11.5 mph - N/A   Mostly Cloudy
1:00 AM 33.8 °F 26.4 °F 32.0 °F 93% 29.92 in 3.1 mi North 9.2 mph - N/A   Mostly Cloudy
2:00 AM 32.0 °F 24.2 °F 30.2 °F 93% 29.92 in 5.0 mi North 9.2 mph - N/A   Overcast
3:00 AM 32.0 °F 24.2 °F 30.2 °F 93% 29.92 in 6.2 mi North 9.2 mph - N/A   Mostly Cloudy
4:00 AM 32.0 °F 24.2 °F 28.4 °F 87% 29.92 in 6.2 mi North 9.2 mph - N/A   Mostly Cloudy
5:00 AM 32.0 °F 24.2 °F 28.4 °F 87% 29.89 in 6.2 mi North 9.2 mph - N/A   Mostly Cloudy
5:30 AM 32.0 °F 24.2 °F 28.4 °F 87% 29.89 in 6.2 mi North 9.2 mph - N/A   Mostly Cloudy
6:00 AM 32.0 °F 25.6 °F 28.4 °F 87% 29.89 in 6.2 mi North 6.9 mph - N/A   Mostly Cloudy
6:30 AM 30.2 °F 23.4 °F 28.4 °F 93% 29.92 in 6.2 mi North 6.9 mph - N/A   Mostly Cloudy
7:00 AM 30.2 °F 21.9 °F 26.6 °F 86% 29.89 in 6.2 mi North 9.2 mph - N/A   Mostly Cloudy
7:30 AM 30.2 °F 23.4 °F 28.4 °F 93% 29.92 in 6.2 mi NNW 6.9 mph - N/A   Overcast
8:00 AM 32.0 °F 25.6 °F 26.6 °F 80% 29.92 in 6.2 mi North 6.9 mph - N/A   Overcast
8:30 AM 32.0 °F 25.6 °F 28.4 °F 87% 29.92 in 6.2 mi NNW 6.9 mph - N/A   Mostly Cloudy
9:00 AM 32.0 °F 25.6 °F 28.4 °F 87% 29.92 in 6.2 mi NNW 6.9 mph - N/A   Overcast
9:30 AM 32.0 °F 25.6 °F 28.4 °F 87% 29.92 in 6.2 mi NNW 6.9 mph - N/A   Overcast
10:00 AM 32.0 °F 25.6 °F 26.6 °F 80% 29.92 in 6.2 mi NNW 6.9 mph - N/A   Overcast
10:30 AM 32.0 °F 25.6 °F 28.4 °F 87% 29.92 in 6.2 mi NNW 6.9 mph - N/A   Overcast
11:00 AM 33.8 °F 26.4 °F 26.6 °F 75% 29.92 in 6.2 mi NNW 9.2 mph - N/A   Mostly Cloudy
11:30 AM 33.8 °F 26.4 °F 26.6 °F 75% 29.92 in 6.2 mi NNW 9.2 mph - N/A   Mostly Cloudy
12:00 PM 33.8 °F 26.4 °F 26.6 °F 75% 29.92 in 6.2 mi NNW 9.2 mph - N/A   Mostly Cloudy
12:30 PM 33.8 °F 26.4 °F 26.6 °F 75% 29.92 in 6.2 mi NNW 9.2 mph - N/A   Mostly Cloudy
1:00 PM 35.6 °F 28.6 °F 26.6 °F 70% 29.92 in 6.2 mi NNW 9.2 mph - N/A   Mostly Cloudy
1:30 PM 35.6 °F 28.6 °F 26.6 °F 70% 29.89 in 6.2 mi North 9.2 mph - N/A   Mostly Cloudy
2:00 PM 35.6 °F 28.6 °F 26.6 °F 70% 29.89 in 6.2 mi North 9.2 mph - N/A   Mostly Cloudy
2:30 PM 35.6 °F 28.6 °F 26.6 °F 70% 29.89 in 6.2 mi North 9.2 mph - N/A   Mostly Cloudy
3:00 PM 35.6 °F 29.9 °F 26.6 °F 70% 29.89 in 6.2 mi North 6.9 mph - N/A   Mostly Cloudy
3:30 PM 37.4 °F 32.1 °F 26.6 °F 65% 29.89 in 6.2 mi Variable 6.9 mph - N/A   Mostly Cloudy
4:00 PM 37.4 °F 32.1 °F 26.6 °F 65% 29.89 in 6.2 mi North 6.9 mph - N/A   Mostly Cloudy
4:30 PM 37.4 °F 33.8 °F 26.6 °F 65% 29.89 in 6.2 mi NW 4.6 mph - N/A   Mostly Cloudy
5:00 PM 37.4 °F 32.1 °F 26.6 °F 65% 29.89 in 6.2 mi North 6.9 mph - N/A   Mostly Cloudy
5:30 PM 37.4 °F 32.1 °F 26.6 °F 65% 29.89 in 6.2 mi North 6.9 mph - N/A   Mostly Cloudy
6:00 PM 37.4 °F 32.1 °F 26.6 °F 65% 29.89 in 6.2 mi NNE 6.9 mph - N/A   Mostly Cloudy
6:30 PM 35.6 °F 29.9 °F 28.4 °F 75% 29.89 in 6.2 mi ENE 6.9 mph - N/A   Mostly Cloudy
7:00 PM 35.6 °F 31.7 °F 26.6 °F 70% 29.89 in 6.2 mi NE 4.6 mph - N/A   Mostly Cloudy
7:30 PM 35.6 °F - 26.6 °F 70% 29.89 in 6.2 mi Variable 2.3 mph - N/A   Mostly Cloudy
8:00 PM 35.6 °F - 28.4 °F 75% 29.92 in 6.2 mi Variable 2.3 mph - N/A   Mostly Cloudy
8:30 PM 35.6 °F - 28.4 °F 75% 29.92 in 6.2 mi East 2.3 mph - N/A   Scattered Clouds
9:00 PM 35.6 °F 31.7 °F 28.4 °F 75% 29.92 in 6.2 mi East 4.6 mph - N/A   Partly Cloudy
10:00 PM 35.6 °F - 30.2 °F 81% 29.92 in 6.2 mi Calm Calm - N/A   Partly Cloudy
11:00 PM 35.6 °F - 30.2 °F 81% 29.92 in 6.2 mi South 2.3 mph - N/A   Overcast